Weather History for Farmingdale, NY

Change the Weather History Date:

Tuesday, October 9, 2012

  Actual Average Record
Temperature  
Mean Temperature 54 °F -  
Max Temperature 57 °F 64 °F 84 °F (2011)
Min Temperature 50 °F 48 °F 33 °F (2001)
Degree Days  
Heating Degree Days 12    
Growing Degree Days 4 (Base 50)    
Moisture  
Dew Point 52 °F    
Average Humidity 91    
Maximum Humidity 100    
Minimum Humidity 74    
Precipitation  
Precipitation 0.01 in - - ()
Sea Level Pressure  
Sea Level Pressure 30.15 in    
Wind  
Wind Speed 7 mph (NE)    
Max Wind Speed 14 mph    
Max Gust Speed 22 mph    
Visibility 8 miles    
Events Rain    
Averages and records for this station are not official NWS values.
T = Trace of Precipitation, MM = Missing Value Source: NWS Daily Summary

Daily Weather History Graph

Daily Weather History Graph

Search for Another Location

Airport:

Trip Planner

Search our weather history database for the weather conditions in past years. The results will help you decide how hot, cold, wet, or windy it might be!

Date:

Astronomy

Oct. 09, 2012 Rise Set
Actual Time 6:58 AM EDT 6:21 PM EDT
Civil Twilight 6:31 AM EDT 6:49 PM EDT
Nautical Twilight 5:59 AM EDT 7:21 PM EDT
Astronomical Twilight 5:27 AM EDT 7:52 PM EDT
Moon 12:30 AM EDT (10/9) 2:49 PM EDT (10/9)
Length of Visible Light 12h 17m
Length of Day
11h 23m
Last Quarter, 37% of the Moon is Illuminated
Oct 9
Last Quarter
Oct 15
New
Oct 21
First Quarter
Oct 29
Full
Nov 6
Last Quarter

Hourly Weather History & Observations

Time (EDT) Temp. Dew Point Humidity Pressure Visibility Wind Dir Wind Speed Gust Speed Precip Events Conditions
12:53 AM 50.0 °F 44.1 °F 80% 30.24 in 10.0 mi ENE 3.5 mph - N/A   Overcast
1:53 AM 50.0 °F 43.0 °F 77% 30.22 in 10.0 mi NE 4.6 mph - N/A   Mostly Cloudy
2:53 AM 51.1 °F 44.1 °F 77% 30.20 in 10.0 mi NNE 4.6 mph - N/A   Overcast
4:53 AM 53.1 °F 45.0 °F 74% 30.20 in 10.0 mi NE 5.8 mph - N/A   Overcast
5:53 AM 53.1 °F 46.0 °F 77% 30.19 in 10.0 mi NE 6.9 mph - N/A   Overcast
6:53 AM 53.1 °F 48.9 °F 86% 30.19 in 10.0 mi NE 4.6 mph - N/A   Overcast
7:53 AM 54.0 °F 50.0 °F 86% 30.18 in 10.0 mi NE 10.4 mph - N/A   Overcast
8:35 AM 53.6 °F 51.8 °F 94% 30.19 in 10.0 mi NE 9.2 mph - N/A   Overcast
8:53 AM 54.0 °F 51.1 °F 90% 30.20 in 10.0 mi ENE 11.5 mph 18.4 mph 0.00 in Rain Light Rain
9:14 AM 53.6 °F 51.8 °F 94% 30.19 in 10.0 mi NE 9.2 mph - 0.00 in   Overcast
9:46 AM 53.6 °F 51.8 °F 94% 30.19 in 4.0 mi NE 9.2 mph - 0.00 in   Overcast
9:53 AM 54.0 °F 52.0 °F 93% 30.19 in 4.0 mi NE 8.1 mph - 0.00 in   Overcast
10:53 AM 57.0 °F 53.1 °F 87% 30.18 in 10.0 mi NE 13.8 mph 19.6 mph 0.00 in   Overcast
11:07 AM 55.4 °F 53.6 °F 94% 30.18 in 10.0 mi NE 12.7 mph 19.6 mph N/A   Overcast
11:53 AM 55.9 °F 53.1 °F 90% 30.18 in 10.0 mi NE 9.2 mph - N/A   Overcast
12:53 PM 57.0 °F 53.1 °F 87% 30.16 in 10.0 mi ENE 9.2 mph 21.9 mph 0.00 in   Overcast
1:53 PM 55.9 °F 54.0 °F 93% 30.14 in 5.0 mi NE 10.4 mph 17.3 mph N/A   Overcast
2:18 PM 55.4 °F 53.6 °F 94% 30.13 in 6.0 mi NE 8.1 mph - N/A   Overcast
2:28 PM 55.4 °F 53.6 °F 94% 30.13 in 3.0 mi NE 8.1 mph - N/A   Overcast
2:40 PM 55.4 °F 53.6 °F 94% 30.13 in 2.5 mi NE 8.1 mph - N/A   Overcast
2:53 PM 55.9 °F 55.0 °F 97% 30.13 in 2.5 mi NE 6.9 mph - N/A   Overcast
3:24 PM 55.4 °F 55.4 °F 100% 30.13 in 4.0 mi ENE 9.2 mph - 0.01 in   Overcast
3:48 PM 55.4 °F 55.4 °F 100% 30.13 in 9.0 mi ENE 6.9 mph - 0.01 in   Overcast
3:53 PM 55.9 °F 55.0 °F 97% 30.13 in 10.0 mi NE 9.2 mph - 0.01 in   Overcast
4:01 PM 55.4 °F 55.4 °F 100% 30.12 in 10.0 mi ENE 9.2 mph - N/A   Overcast
4:37 PM 55.4 °F 53.6 °F 94% 30.12 in 10.0 mi NE 9.2 mph - N/A   Overcast
4:53 PM 55.9 °F 54.0 °F 93% 30.12 in 10.0 mi NE 9.2 mph - N/A   Overcast
5:28 PM 55.4 °F 53.6 °F 94% 30.12 in 9.0 mi ENE 6.9 mph - N/A   Overcast
5:53 PM 55.9 °F 54.0 °F 93% 30.12 in 5.0 mi ENE 5.8 mph - N/A   Overcast
6:53 PM 55.9 °F 53.1 °F 90% 30.12 in 10.0 mi NE 4.6 mph - N/A   Overcast
7:53 PM 55.9 °F 53.1 °F 90% 30.12 in 10.0 mi NE 4.6 mph - N/A   Overcast
8:53 PM 55.9 °F 53.1 °F 90% 30.11 in 10.0 mi ENE 6.9 mph - N/A   Overcast
9:53 PM 55.9 °F 53.1 °F 90% 30.11 in 10.0 mi ENE 5.8 mph - 0.00 in Rain Light Rain
10:00 PM 55.4 °F 53.6 °F 94% 30.10 in 10.0 mi ENE 8.1 mph - 0.00 in Rain Light Rain
10:42 PM 55.4 °F 53.6 °F 94% 30.10 in 10.0 mi ENE 4.6 mph - 0.00 in   Overcast
10:53 PM 55.0 °F 53.1 °F 93% 30.11 in 9.0 mi ENE 5.8 mph - 0.00 in Rain Light Rain
11:29 PM 55.4 °F 53.6 °F 94% 30.09 in 6.0 mi ENE 6.9 mph - 0.00 in Rain Light Rain
11:42 PM 53.6 °F 53.6 °F 100% 30.09 in 10.0 mi ENE 6.9 mph - 0.00 in   Overcast
11:53 PM 54.0 °F 53.1 °F 97% 30.09 in 10.0 mi ENE 5.8 mph - 0.00 in   Overcast